| time (UTC) | temp F | wind direction | speed knots | gust knots | rain 1hr in | rain 24hr in | rain mn in | humidity % | barometer mb |
| 20260508013201 | 69 | 188 | 3.5 | 7.0 | 0.00 | 0.00 | 0.00 | 67 | 1011.6 |
| 20260508012659 | 70 | 218 | 1.7 | 6.1 | 0.00 | 0.00 | 0.00 | 65 | 1011.6 |
| 20260508012155 | 69 | 157 | 5.2 | 7.0 | 0.00 | 0.00 | 0.00 | 66 | 1011.9 |
| 20260508011654 | 70 | 232 | 3.5 | 7.0 | 0.00 | 0.00 | 0.00 | 65 | 1011.9 |
| 20260508011150 | 70 | 200 | 3.5 | 5.2 | 0.00 | 0.00 | 0.00 | 64 | 1011.6 |
| 20260508010646 | 71 | 189 | 4.3 | 7.0 | 0.00 | 0.00 | 0.00 | 63 | 1011.6 |
| 20260508010139 | 71 | 237 | 5.2 | 7.0 | 0.00 | 0.00 | 0.00 | 62 | 1011.6 |
| 20260508005636 | 71 | 209 | 4.3 | 7.0 | 0.00 | 0.00 | 0.00 | 63 | 1011.6 |
| 20260508005133 | 71 | 216 | 3.5 | 6.1 | 0.00 | 0.00 | 0.00 | 64 | 1011.6 |
| 20260508004628 | 71 | 183 | 3.5 | 5.2 | 0.00 | 0.00 | 0.00 | 63 | 1011.2 |
| 20260508004125 | 71 | 207 | 2.6 | 6.1 | 0.00 | 0.00 | 0.00 | 63 | 1011.6 |
| 20260508003621 | 72 | 205 | 2.6 | 6.1 | 0.00 | 0.00 | 0.00 | 62 | 1011.6 |
| 20260508003120 | 72 | 213 | 2.6 | 5.2 | 0.00 | 0.00 | 0.00 | 60 | 1011.6 |
| 20260508002616 | 71 | 182 | 4.3 | 6.1 | 0.00 | 0.00 | 0.00 | 61 | 1011.2 |
| 20260508002114 | 73 | 230 | 2.6 | 7.8 | 0.00 | 0.00 | 0.00 | 61 | 1011.6 |
| 20260508001608 | 71 | 198 | 5.2 | 7.0 | 0.00 | 0.00 | 0.00 | 61 | 1011.2 |
| 20260508001105 | 72 | 225 | 7.0 | 8.7 | 0.00 | 0.00 | 0.00 | 61 | 1011.6 |
| 20260508000601 | 73 | 212 | 2.6 | 7.0 | 0.00 | 0.00 | 0.00 | 60 | 1011.6 |
| 20260508000058 | 73 | 208 | 1.7 | 5.2 | 0.00 | 0.00 | 0.00 | 60 | 1011.2 |
| 20260507235555 | 72 | 216 | 3.5 | 7.8 | 0.00 | 0.00 | 0.00 | 62 | 1011.6 |
| 20260507235052 | 73 | 254 | 4.3 | 9.6 | 0.00 | 0.00 | 0.00 | 61 | 1011.6 |
| 20260507234549 | 73 | 228 | 3.5 | 6.1 | 0.00 | 0.00 | 0.00 | 59 | 1011.6 |
| 20260507234045 | 73 | 234 | 3.5 | 6.1 | 0.00 | 0.00 | 0.00 | 60 | 1011.6 |
| 20260507233542 | 73 | 222 | 3.5 | 5.2 | 0.00 | 0.00 | 0.00 | 60 | 1011.6 |
| 20260507233041 | 73 | 227 | 3.5 | 5.2 | 0.00 | 0.00 | 0.00 | 60 | 1011.6 |
| 20260507232536 | 73 | 219 | 2.6 | 7.0 | 0.00 | 0.00 | 0.00 | 59 | 1011.6 |
| 20260507232034 | 73 | 184 | 5.2 | 8.7 | 0.00 | 0.00 | 0.00 | 59 | 1011.6 |
| 20260507231530 | 73 | 217 | 7.0 | 9.6 | 0.00 | 0.00 | 0.00 | 58 | 1011.6 |
| 20260507231028 | 74 | 233 | 5.2 | 7.8 | 0.00 | 0.00 | 0.00 | 57 | 1011.2 |
| 20260507230524 | 74 | 223 | 3.5 | 6.1 | 0.00 | 0.00 | 0.00 | 58 | 1011.2 |
| 20260507230021 | 74 | 252 | 2.6 | 7.0 | 0.00 | 0.00 | 0.00 | 57 | 1011.6 |
| 20260507225516 | 74 | 195 | 3.5 | 8.7 | 0.00 | 0.00 | 0.00 | 57 | 1011.6 |
| 20260507225012 | 73 | 209 | 3.5 | 7.0 | 0.00 | 0.00 | 0.00 | 57 | 1011.6 |
| 20260507224508 | 74 | 202 | 3.5 | 7.0 | 0.00 | 0.00 | 0.00 | 56 | 1011.6 |
| 20260507224005 | 75 | 210 | 6.1 | 7.8 | 0.00 | 0.00 | 0.00 | 55 | 1011.9 |
| 20260507223501 | 74 | 234 | 5.2 | 8.7 | 0.00 | 0.00 | 0.00 | 57 | 1011.9 |
| 20260507222958 | 73 | 221 | 4.3 | 7.8 | 0.00 | 0.00 | 0.00 | 57 | 1011.9 |
| 20260507222455 | 74 | 204 | 5.2 | 7.8 | 0.00 | 0.00 | 0.00 | 56 | 1011.6 |
| 20260507221951 | 73 | 178 | 5.2 | 8.7 | 0.00 | 0.00 | 0.00 | 58 | 1011.9 |
| 20260507221448 | 73 | 233 | 3.5 | 5.2 | 0.00 | 0.00 | 0.00 | 59 | 1011.6 |
| 20260507220945 | 74 | 164 | 2.6 | 8.7 | 0.00 | 0.00 | 0.00 | 58 | 1011.9 |
| 20260507220443 | 74 | 190 | 6.1 | 8.7 | 0.00 | 0.00 | 0.00 | 57 | 1012.3 |
| 20260507215939 | 74 | 175 | 4.3 | 6.1 | 0.00 | 0.00 | 0.00 | 58 | 1012.3 |
| 20260507215435 | 74 | 186 | 4.3 | 6.1 | 0.00 | 0.00 | 0.00 | 57 | 1012.3 |
| 20260507214933 | 73 | 213 | 6.1 | 8.7 | 0.00 | 0.00 | 0.00 | 59 | 1012.3 |
| 20260507214431 | 74 | 210 | 4.3 | 8.7 | 0.00 | 0.00 | 0.00 | 58 | 1012.3 |
| 20260507213926 | 74 | 236 | 7.0 | 7.8 | 0.00 | 0.00 | 0.00 | 56 | 1012.6 |
| 20260507213423 | 75 | 186 | 6.1 | 7.8 | 0.00 | 0.00 | 0.00 | 57 | 1012.3 |
| 20260507212920 | 74 | 211 | 6.1 | 8.7 | 0.00 | 0.00 | 0.00 | 57 | 1012.6 |
| 20260507212415 | 75 | 183 | 0.9 | 7.0 | 0.00 | 0.00 | 0.00 | 55 | 1012.6 |
| 20260507211912 | 75 | 196 | 0.9 | 7.0 | 0.00 | 0.00 | 0.00 | 55 | 1012.6 |
| 20260507211409 | 75 | 216 | 4.3 | 7.0 | 0.00 | 0.00 | 0.00 | 56 | 1012.6 |
| 20260507210906 | 74 | 216 | 3.5 | 8.7 | 0.00 | 0.00 | 0.00 | 56 | 1012.6 |
| 20260507210403 | 75 | 207 | 3.5 | 6.1 | 0.00 | 0.00 | 0.00 | 56 | 1012.6 |
| 20260507205859 | 74 | 214 | 1.7 | 7.8 | 0.00 | 0.00 | 0.00 | 57 | 1012.6 |
| 20260507205356 | 75 | 233 | 4.3 | 7.0 | 0.00 | 0.00 | 0.00 | 55 | 1012.6 |
| 20260507204852 | 75 | 244 | 4.3 | 6.1 | 0.00 | 0.00 | 0.00 | 56 | 1012.6 |
| 20260507204349 | 74 | 252 | 3.5 | 7.0 | 0.00 | 0.00 | 0.00 | 58 | 1013.0 |
| 20260507203847 | 74 | 168 | 2.6 | 7.0 | 0.00 | 0.00 | 0.00 | 59 | 1012.6 |
| 20260507203345 | 75 | 179 | 0.9 | 7.0 | 0.00 | 0.00 | 0.00 | 57 | 1013.0 |
| 20260507202841 | 74 | 212 | 6.1 | 7.8 | 0.00 | 0.00 | 0.00 | 60 | 1013.0 |
| 20260507202337 | 75 | 216 | 3.5 | 8.7 | 0.00 | 0.00 | 0.00 | 58 | 1013.0 |
| 20260507201833 | 73 | 197 | 0.9 | 7.0 | 0.00 | 0.00 | 0.00 | 60 | 1012.6 |
| 20260507201328 | 73 | 200 | 1.7 | 7.8 | 0.00 | 0.00 | 0.00 | 60 | 1013.0 |
| 20260507200825 | 74 | 207 | 4.3 | 8.7 | 0.00 | 0.00 | 0.00 | 60 | 1012.6 |
| 20260507200321 | 76 | 204 | 2.6 | 7.0 | 0.00 | 0.00 | 0.00 | 55 | 1013.0 |
| 20260507195817 | 74 | 261 | 3.5 | 6.1 | 0.00 | 0.00 | 0.00 | 58 | 1013.0 |
| 20260507195315 | 73 | 202 | 6.1 | 7.8 | 0.00 | 0.00 | 0.00 | 60 | 1013.0 |
| 20260507194812 | 75 | 209 | 2.6 | 5.2 | 0.00 | 0.00 | 0.00 | 56 | 1013.4 |
| 20260507194308 | 74 | 232 | 3.5 | 6.1 | 0.00 | 0.00 | 0.00 | 58 | 1013.0 |
| 20260507193805 | 74 | 225 | 2.6 | 7.0 | 0.00 | 0.00 | 0.00 | 57 | 1013.0 |
| 20260507193302 | 74 | 167 | 2.6 | 9.6 | 0.00 | 0.00 | 0.00 | 58 | 1013.0 |
| 20260507192757 | 74 | 172 | 2.6 | 7.8 | 0.00 | 0.00 | 0.00 | 59 | 1013.0 |
| 20260507192255 | 74 | 224 | 2.6 | 7.8 | 0.00 | 0.00 | 0.00 | 59 | 1013.4 |
| 20260507191750 | 73 | 227 | 2.6 | 6.1 | 0.00 | 0.00 | 0.00 | 60 | 1013.4 |
| 20260507191247 | 74 | 226 | 4.3 | 6.1 | 0.00 | 0.00 | 0.00 | 57 | 1013.4 |
| 20260507190744 | 75 | 181 | 2.6 | 6.1 | 0.00 | 0.00 | 0.00 | 57 | 1013.4 |
| 20260507190243 | 74 | 239 | 0.9 | 4.3 | 0.00 | 0.00 | 0.00 | 59 | 1013.4 |
| 20260507185741 | 72 | 211 | 0.9 | 7.0 | 0.00 | 0.00 | 0.00 | 60 | 1013.4 |
| 20260507185237 | 73 | 112 | 2.6 | 5.2 | 0.00 | 0.00 | 0.00 | 58 | 1013.7 |
| 20260507184735 | 73 | 251 | 3.5 | 5.2 | 0.00 | 0.00 | 0.00 | 58 | 1013.4 |
| 20260507184233 | 74 | 224 | 7.0 | 8.7 | 0.00 | 0.00 | 0.00 | 60 | 1013.7 |
| 20260507183729 | 74 | 179 | 3.5 | 4.3 | 0.00 | 0.00 | 0.00 | 58 | 1014.0 |
| 20260507183226 | 73 | 242 | 5.2 | 6.1 | 0.00 | 0.00 | 0.00 | 60 | 1013.7 |
| 20260507182724 | 73 | 197 | 5.2 | 7.0 | 0.00 | 0.00 | 0.00 | 60 | 1013.7 |
| 20260507182218 | 73 | 246 | 3.5 | 6.1 | 0.00 | 0.00 | 0.00 | 59 | 1013.7 |
| 20260507181716 | 73 | 172 | 3.5 | 6.1 | 0.00 | 0.00 | 0.00 | 58 | 1014.0 |
| 20260507181212 | 73 | 200 | 4.3 | 5.2 | 0.00 | 0.00 | 0.00 | 57 | 1014.0 |
| 20260507180710 | 71 | 216 | 1.7 | 1.7 | 0.00 | 0.00 | 0.00 | 60 | 1014.0 |
| 20260507180206 | 73 | 258 | 2.6 | 2.6 | 0.00 | 0.00 | 0.00 | 57 | 1014.0 |
| 20260507175701 | 72 | 174 | 2.6 | 4.3 | 0.00 | 0.00 | 0.00 | 58 | 1013.7 |
| 20260507175159 | 71 | 169 | 1.7 | 6.1 | 0.00 | 0.00 | 0.00 | 60 | 1014.0 |
| 20260507174656 | 71 | 263 | 3.5 | 6.1 | 0.00 | 0.00 | 0.00 | 61 | 1014.0 |
| 20260507174154 | 71 | 200 | 0.9 | 1.7 | 0.00 | 0.00 | 0.00 | 61 | 1014.0 |
| 20260507173651 | 70 | 243 | 2.6 | 4.3 | 0.00 | 0.00 | 0.00 | 61 | 1014.0 |
| 20260507173147 | 70 | 251 | 3.5 | 5.2 | 0.00 | 0.00 | 0.00 | 63 | 1014.4 |
| 20260507172643 | 70 | 290 | 0.9 | 0.9 | 0.00 | 0.00 | 0.00 | 62 | 1014.0 |
| 20260507172136 | 70 | 206 | 2.6 | 5.2 | 0.00 | 0.00 | 0.00 | 62 | 1014.0 |
| 20260507171635 | 69 | 139 | 2.6 | 5.2 | 0.00 | 0.00 | 0.00 | 65 | 1014.4 |
| 20260507171133 | 69 | 242 | 0.9 | 5.2 | 0.00 | 0.00 | 0.00 | 64 | 1014.4 |
| 20260507170630 | 69 | 182 | 1.7 | 4.3 | 0.00 | 0.00 | 0.00 | 64 | 1014.4 |
| 20260507170127 | 70 | 165 | 0.0 | 0.9 | 0.00 | 0.00 | 0.00 | 63 | 1014.4 |
| 20260507165623 | 70 | 228 | 0.9 | 1.7 | 0.00 | 0.00 | 0.00 | 65 | 1014.0 |
| 20260507165119 | 69 | 170 | 0.9 | 2.6 | 0.00 | 0.00 | 0.00 | 66 | 1014.4 |
| 20260507164615 | 68 | 234 | 3.5 | 4.3 | 0.00 | 0.00 | 0.00 | 67 | 1014.4 |
| 20260507164112 | 67 | 144 | 1.7 | 2.6 | 0.00 | 0.00 | 0.00 | 68 | 1014.4 |
| 20260507163609 | 67 | 237 | 3.5 | 4.3 | 0.00 | 0.00 | 0.00 | 70 | 1014.0 |
| 20260507163107 | 67 | 214 | 2.6 | 4.3 | 0.00 | 0.00 | 0.00 | 69 | 1014.4 |
| 20260507162602 | 66 | 183 | 2.6 | 5.2 | 0.00 | 0.00 | 0.00 | 70 | 1014.7 |
| 20260507162059 | 66 | 200 | 2.6 | 4.3 | 0.00 | 0.00 | 0.00 | 70 | 1014.7 |
| 20260507161555 | 66 | 156 | 1.7 | 4.3 | 0.00 | 0.00 | 0.00 | 71 | 1014.4 |
| 20260507161052 | 66 | 158 | 3.5 | 4.3 | 0.00 | 0.00 | 0.00 | 71 | 1014.4 |
| 20260507160548 | 64 | 327 | 0.9 | 1.7 | 0.00 | 0.00 | 0.00 | 73 | 1014.4 |
| 20260507160045 | 65 | 263 | 1.7 | 2.6 | 0.00 | 0.00 | 0.00 | 73 | 1014.4 |
| 20260507155540 | 66 | 223 | 2.6 | 2.6 | 0.00 | 0.00 | 0.00 | 71 | 1014.4 |
| 20260507155037 | 65 | 125 | 0.0 | 0.9 | 0.00 | 0.00 | 0.00 | 73 | 1014.7 |
| 20260507154534 | 64 | 195 | 0.0 | 1.7 | 0.00 | 0.00 | 0.00 | 75 | 1014.7 |
| 20260507154031 | 64 | 174 | 1.7 | 2.6 | 0.00 | 0.00 | 0.00 | 73 | 1014.4 |
| 20260507153528 | 64 | 152 | 2.6 | 4.3 | 0.00 | 0.00 | 0.00 | 76 | 1014.7 |
| 20260507153024 | 64 | 180 | 0.0 | 0.9 | 0.00 | 0.00 | 0.00 | 74 | 1014.7 |
| 20260507152520 | 63 | 101 | 1.7 | 1.7 | 0.00 | 0.00 | 0.00 | 75 | 1014.7 |
| 20260507152017 | 63 | 157 | 0.9 | 2.6 | 0.00 | 0.00 | 0.00 | 76 | 1014.7 |
| 20260507151513 | 63 | 196 | 1.7 | 4.3 | 0.00 | 0.00 | 0.00 | 76 | 1015.1 |
| 20260507151010 | 63 | 81 | 0.9 | 2.6 | 0.00 | 0.00 | 0.00 | 77 | 1014.7 |
| 20260507150507 | 63 | 150 | 2.6 | 2.6 | 0.00 | 0.00 | 0.00 | 76 | 1014.7 |
| 20260507150004 | 63 | 190 | 0.9 | 1.7 | 0.00 | 0.00 | 0.00 | 76 | 1014.7 |
| 20260507145459 | 62 | 104 | 1.7 | 2.6 | 0.00 | 0.00 | 0.00 | 77 | 1015.1 |
| 20260507144956 | 62 | 209 | 0.0 | 0.9 | 0.00 | 0.00 | 0.00 | 79 | 1015.1 |
| 20260507144453 | 62 | 196 | 0.9 | 0.9 | 0.00 | 0.00 | 0.00 | 77 | 1014.7 |
| 20260507143950 | 61 | 133 | 0.9 | 0.9 | 0.00 | 0.00 | 0.00 | 78 | 1014.7 |
| 20260507143448 | 61 | 142 | 1.7 | 1.7 | 0.00 | 0.00 | 0.00 | 79 | 1014.7 |
| 20260507142944 | 61 | 148 | 1.7 | 1.7 | 0.00 | 0.00 | 0.00 | 80 | 1014.4 |
| 20260507142440 | 60 | 165 | 0.0 | 1.7 | 0.00 | 0.00 | 0.00 | 80 | 1014.4 |
| 20260507141937 | 61 | 166 | 1.7 | 1.7 | 0.00 | 0.00 | 0.00 | 79 | 1014.4 |
| 20260507141433 | 60 | 148 | 0.0 | 0.9 | 0.00 | 0.00 | 0.00 | 80 | 1014.4 |
| 20260507140930 | 61 | 108 | 0.0 | 0.0 | 0.00 | 0.00 | 0.00 | 78 | 1014.4 |
| 20260507140426 | 60 | 108 | 0.0 | 0.0 | 0.00 | 0.00 | 0.00 | 79 | 1014.4 |
| 20260507135925 | 59 | 108 | 0.0 | 0.9 | 0.00 | 0.00 | 0.00 | 81 | 1014.4 |
| 20260507135421 | 59 | 109 | 0.0 | 0.9 | 0.00 | 0.00 | 0.00 | 81 | 1014.4 |
| 20260507134918 | 59 | 109 | 0.0 | 0.0 | 0.00 | 0.00 | 0.00 | 81 | 1014.4 |
| 20260507134415 | 58 | 109 | 0.0 | 0.0 | 0.00 | 0.00 | 0.00 | 83 | 1014.0 |
| 20260507133910 | 57 | 109 | 0.0 | 0.0 | 0.00 | 0.00 | 0.00 | 84 | 1014.0 |
| 20260507133406 | 56 | 109 | 0.0 | 0.0 | 0.00 | 0.00 | 0.00 | 86 | 1014.0 |
| 20260507132906 | 55 | 109 | 0.0 | 0.0 | 0.00 | 0.00 | 0.00 | 87 | 1014.0 |
| 20260507132401 | 55 | 109 | 0.0 | 0.0 | 0.00 | 0.00 | 0.00 | 87 | 1014.0 |
| 20260507131858 | 55 | 108 | 0.0 | 0.0 | 0.00 | 0.00 | 0.00 | 88 | 1014.0 |
| 20260507131355 | 55 | 108 | 0.0 | 0.0 | 0.00 | 0.00 | 0.00 | 88 | 1014.0 |
| 20260507130852 | 55 | 108 | 0.0 | 0.0 | 0.00 | 0.00 | 0.00 | 88 | 1013.7 |
| 20260507130349 | 55 | 108 | 0.0 | 0.0 | 0.00 | 0.00 | 0.00 | 88 | 1014.0 |
| 20260507125848 | 54 | 108 | 0.0 | 0.0 | 0.00 | 0.00 | 0.00 | 88 | 1013.7 |
| 20260507125345 | 55 | 108 | 0.0 | 0.0 | 0.00 | 0.00 | 0.00 | 88 | 1013.7 |
| 20260507124843 | 55 | 108 | 0.0 | 0.0 | 0.00 | 0.00 | 0.00 | 88 | 1013.7 |
| 20260507124338 | 55 | 108 | 0.0 | 0.0 | 0.00 | 0.00 | 0.00 | 88 | 1013.7 |
| 20260507123837 | 55 | 108 | 0.0 | 0.0 | 0.00 | 0.00 | 0.00 | 88 | 1013.7 |
| 20260507123334 | 55 | 108 | 0.0 | 0.0 | 0.00 | 0.00 | 0.00 | 88 | 1013.7 |
| 20260507122830 | 55 | 108 | 0.0 | 0.0 | 0.00 | 0.00 | 0.00 | 88 | 1013.7 |
| 20260507122325 | 55 | 108 | 0.0 | 0.0 | 0.00 | 0.00 | 0.00 | 88 | 1013.7 |
| 20260507121823 | 55 | 108 | 0.0 | 0.0 | 0.00 | 0.00 | 0.00 | 88 | 1013.7 |
| 20260507121318 | 56 | 108 | 0.0 | 0.0 | 0.00 | 0.00 | 0.00 | 87 | 1013.7 |
| 20260507120814 | 56 | 108 | 0.0 | 0.0 | 0.00 | 0.00 | 0.00 | 87 | 1013.7 |
| 20260507120311 | 56 | 108 | 0.0 | 0.0 | 0.00 | 0.00 | 0.00 | 86 | 1013.7 |
| 20260507115807 | 56 | 108 | 0.0 | 0.0 | 0.00 | 0.00 | 0.00 | 86 | 1013.7 |
| 20260507115306 | 56 | 108 | 0.0 | 0.9 | 0.00 | 0.00 | 0.00 | 86 | 1013.7 |
| 20260507114759 | 56 | 109 | 0.0 | 0.0 | 0.00 | 0.00 | 0.00 | 86 | 1013.7 |
| 20260507114256 | 56 | 109 | 0.0 | 0.0 | 0.00 | 0.00 | 0.00 | 86 | 1013.7 |
| 20260507113753 | 56 | 109 | 0.0 | 0.9 | 0.00 | 0.00 | 0.00 | 87 | 1013.7 |
| 20260507113244 | 56 | 109 | 0.0 | 0.0 | 0.00 | 0.00 | 0.00 | 87 | 1013.7 |
| 20260507112742 | 55 | 109 | 0.0 | 0.0 | 0.00 | 0.00 | 0.00 | 87 | 1014.0 |
| 20260507112238 | 56 | 109 | 0.0 | 0.0 | 0.00 | 0.00 | 0.00 | 86 | 1014.0 |
| 20260507111737 | 56 | 109 | 0.0 | 0.0 | 0.00 | 0.00 | 0.00 | 86 | 1014.0 |
| 20260507111233 | 56 | 109 | 0.0 | 0.0 | 0.00 | 0.00 | 0.00 | 85 | 1014.0 |
| 20260507110729 | 56 | 109 | 0.0 | 0.0 | 0.00 | 0.00 | 0.00 | 85 | 1013.7 |
| 20260507110226 | 57 | 109 | 0.0 | 0.0 | 0.00 | 0.00 | 0.00 | 85 | 1014.0 |
| 20260507105722 | 56 | 109 | 0.0 | 0.0 | 0.00 | 0.00 | 0.00 | 85 | 1013.7 |
| 20260507105219 | 56 | 109 | 0.0 | 0.0 | 0.00 | 0.00 | 0.00 | 85 | 1014.0 |
| 20260507104716 | 57 | 109 | 0.0 | 0.0 | 0.00 | 0.00 | 0.00 | 83 | 1013.7 |
| 20260507104213 | 57 | 109 | 0.0 | 0.0 | 0.00 | 0.00 | 0.00 | 83 | 1013.7 |
| 20260507103708 | 57 | 109 | 0.0 | 0.9 | 0.00 | 0.00 | 0.00 | 83 | 1014.0 |
| 20260507103205 | 57 | 109 | 0.9 | 0.9 | 0.00 | 0.00 | 0.00 | 83 | 1014.0 |
| 20260507102701 | 57 | 109 | 0.0 | 0.0 | 0.00 | 0.00 | 0.00 | 83 | 1014.0 |
| 20260507102158 | 57 | 109 | 0.0 | 0.0 | 0.00 | 0.00 | 0.00 | 83 | 1014.0 |
| 20260507101654 | 57 | 109 | 0.0 | 0.0 | 0.00 | 0.00 | 0.00 | 83 | 1014.0 |
| 20260507101149 | 58 | 109 | 0.0 | 0.0 | 0.00 | 0.00 | 0.00 | 83 | 1014.0 |
| 20260507100647 | 58 | 109 | 0.0 | 0.0 | 0.00 | 0.00 | 0.00 | 83 | 1014.0 |
| 20260507100145 | 58 | 109 | 0.0 | 0.0 | 0.00 | 0.00 | 0.00 | 83 | 1014.4 |
| 20260507095643 | 58 | 109 | 0.0 | 0.0 | 0.00 | 0.00 | 0.00 | 82 | 1014.4 |
| 20260507095139 | 57 | 109 | 0.0 | 0.0 | 0.00 | 0.00 | 0.00 | 83 | 1014.0 |
| 20260507094636 | 58 | 109 | 0.0 | 0.0 | 0.00 | 0.00 | 0.00 | 83 | 1014.4 |
| 20260507094132 | 58 | 109 | 0.0 | 0.0 | 0.00 | 0.00 | 0.00 | 83 | 1014.0 |
| 20260507093630 | 58 | 109 | 0.0 | 0.0 | 0.00 | 0.00 | 0.00 | 83 | 1014.0 |
| 20260507093129 | 58 | 109 | 0.0 | 0.0 | 0.00 | 0.00 | 0.00 | 83 | 1014.0 |
| 20260507092625 | 58 | 109 | 0.0 | 0.0 | 0.00 | 0.00 | 0.00 | 83 | 1014.4 |
| 20260507092121 | 57 | 109 | 0.0 | 0.0 | 0.00 | 0.00 | 0.00 | 84 | 1014.4 |
| 20260507091618 | 57 | 109 | 0.0 | 0.0 | 0.00 | 0.00 | 0.00 | 83 | 1014.4 |
| 20260507091108 | 58 | 109 | 0.0 | 0.0 | 0.00 | 0.00 | 0.00 | 83 | 1014.4 |
| 20260507090604 | 58 | 109 | 0.0 | 0.0 | 0.00 | 0.00 | 0.00 | 82 | 1014.4 |
| 20260507085559 | 59 | 108 | 0.0 | 0.0 | 0.00 | 0.00 | 0.00 | 80 | 1014.7 |
| 20260507085055 | 59 | 108 | 0.0 | 0.0 | 0.00 | 0.00 | 0.00 | 80 | 1014.7 |
| 20260507084552 | 59 | 108 | 0.0 | 0.0 | 0.00 | 0.00 | 0.00 | 80 | 1014.7 |
| 20260507084049 | 59 | 108 | 0.0 | 0.0 | 0.00 | 0.00 | 0.00 | 80 | 1015.1 |
| 20260507083545 | 59 | 108 | 0.0 | 0.0 | 0.00 | 0.00 | 0.00 | 79 | 1014.7 |
| 20260507083042 | 59 | 108 | 0.0 | 0.0 | 0.00 | 0.00 | 0.00 | 79 | 1015.1 |
| 20260507082538 | 60 | 108 | 0.0 | 0.0 | 0.00 | 0.00 | 0.00 | 79 | 1015.1 |
| 20260507082035 | 60 | 108 | 0.0 | 0.9 | 0.00 | 0.00 | 0.00 | 78 | 1015.1 |
| 20260507081531 | 60 | 108 | 0.9 | 0.9 | 0.00 | 0.00 | 0.00 | 79 | 1014.7 |
| 20260507081028 | 60 | 109 | 0.0 | 0.0 | 0.00 | 0.00 | 0.00 | 79 | 1015.1 |
| 20260507080524 | 60 | 106 | 0.9 | 0.9 | 0.00 | 0.00 | 0.00 | 79 | 1015.1 |
| 20260507080021 | 60 | 111 | 0.0 | 0.0 | 0.00 | 0.00 | 0.00 | 79 | 1015.1 |
| 20260507075516 | 60 | 82 | 0.0 | 0.0 | 0.00 | 0.00 | 0.00 | 79 | 1015.1 |
| 20260507075013 | 60 | 81 | 0.9 | 1.7 | 0.00 | 0.00 | 0.00 | 78 | 1015.1 |
| 20260507074509 | 60 | 134 | 0.0 | 0.0 | 0.00 | 0.00 | 0.00 | 79 | 1014.7 |
| 20260507074008 | 60 | 132 | 0.0 | 0.9 | 0.00 | 0.00 | 0.00 | 78 | 1015.1 |
| 20260507073504 | 61 | 126 | 0.0 | 0.0 | 0.00 | 0.00 | 0.00 | 78 | 1015.1 |
| 20260507073000 | 61 | 90 | 0.9 | 0.9 | 0.00 | 0.00 | 0.00 | 77 | 1015.1 |
| 20260507072458 | 61 | 101 | 0.9 | 1.7 | 0.00 | 0.00 | 0.00 | 77 | 1015.1 |
| 20260507071955 | 61 | 142 | 0.0 | 0.0 | 0.00 | 0.00 | 0.00 | 77 | 1015.1 |
| 20260507071452 | 61 | 142 | 0.9 | 0.9 | 0.00 | 0.00 | 0.00 | 77 | 1015.1 |
| 20260507070948 | 61 | 142 | 0.0 | 0.0 | 0.00 | 0.00 | 0.00 | 77 | 1015.1 |
| 20260507070446 | 61 | 142 | 0.0 | 0.0 | 0.00 | 0.00 | 0.00 | 77 | 1015.1 |
| 20260507065942 | 61 | 142 | 0.0 | 0.9 | 0.00 | 0.00 | 0.00 | 77 | 1015.1 |
| 20260507065438 | 61 | 143 | 0.0 | 0.9 | 0.00 | 0.00 | 0.00 | 77 | 1015.1 |
| 20260507064931 | 61 | 142 | 0.0 | 0.9 | 0.00 | 0.00 | 0.00 | 77 | 1015.1 |
| 20260507064429 | 61 | 143 | 0.0 | 0.9 | 0.00 | 0.00 | 0.00 | 76 | 1015.1 |
| 20260507063926 | 61 | 143 | 0.0 | 0.0 | 0.00 | 0.00 | 0.00 | 76 | 1015.1 |
| 20260507063423 | 61 | 143 | 0.0 | 0.9 | 0.00 | 0.00 | 0.00 | 76 | 1015.1 |
| 20260507062920 | 61 | 143 | 0.0 | 0.0 | 0.00 | 0.00 | 0.00 | 76 | 1015.4 |
| 20260507062417 | 62 | 142 | 0.0 | 0.0 | 0.00 | 0.00 | 0.00 | 75 | 1015.4 |
| 20260507061914 | 62 | 143 | 0.0 | 0.0 | 0.00 | 0.00 | 0.00 | 75 | 1015.1 |
| 20260507061413 | 62 | 143 | 0.0 | 0.0 | 0.00 | 0.00 | 0.00 | 75 | 1015.1 |
| 20260507060911 | 62 | 142 | 0.0 | 0.0 | 0.00 | 0.00 | 0.00 | 75 | 1015.4 |
| 20260507060407 | 62 | 143 | 0.0 | 0.0 | 0.00 | 0.00 | 0.00 | 75 | 1015.1 |
| 20260507055904 | 62 | 146 | 0.9 | 0.9 | 0.00 | 0.00 | 0.00 | 74 | 1015.4 |
| 20260507055358 | 62 | 149 | 0.0 | 0.0 | 0.00 | 0.00 | 0.00 | 74 | 1015.4 |
| 20260507054850 | 62 | 149 | 0.0 | 0.9 | 0.00 | 0.00 | 0.00 | 74 | 1015.1 |
| 20260507054346 | 63 | 200 | 0.0 | 0.0 | 0.00 | 0.00 | 0.00 | 73 | 1015.1 |
| 20260507053844 | 63 | 171 | 0.0 | 0.0 | 0.00 | 0.00 | 0.00 | 71 | 1015.4 |
| 20260507053341 | 63 | 171 | 0.0 | 0.9 | 0.00 | 0.00 | 0.00 | 70 | 1015.4 |
| 20260507052840 | 63 | 171 | 0.0 | 0.0 | 0.00 | 0.00 | 0.00 | 70 | 1015.1 |
| 20260507052336 | 63 | 155 | 0.0 | 0.9 | 0.00 | 0.00 | 0.00 | 73 | 1015.1 |
| 20260507051834 | 63 | 140 | 0.0 | 0.9 | 0.00 | 0.00 | 0.00 | 73 | 1015.1 |
| 20260507051332 | 63 | 143 | 1.7 | 1.7 | 0.00 | 0.00 | 0.00 | 73 | 1015.1 |
| 20260507050828 | 63 | 166 | 0.9 | 1.7 | 0.00 | 0.00 | 0.00 | 73 | 1015.1 |
| 20260507050324 | 63 | 141 | 0.0 | 0.9 | 0.00 | 0.00 | 0.00 | 72 | 1015.1 |
| 20260507045822 | 63 | 138 | 1.7 | 1.7 | 0.00 | 0.00 | 0.00 | 72 | 1015.1 |
| 20260507045318 | 64 | 137 | 0.9 | 1.7 | 0.00 | 0.00 | 0.00 | 72 | 1015.1 |
| 20260507044815 | 64 | 142 | 0.9 | 1.7 | 0.00 | 0.00 | 0.00 | 72 | 1015.1 |
| 20260507044312 | 64 | 139 | 0.9 | 1.7 | 0.00 | 0.00 | 0.00 | 71 | 1015.1 |
| 20260507043808 | 64 | 168 | 1.7 | 2.6 | 0.00 | 0.00 | 0.00 | 71 | 1015.1 |
| 20260507043305 | 64 | 175 | 1.7 | 2.6 | 0.00 | 0.00 | 0.00 | 71 | 1015.1 |
| 20260507042801 | 64 | 167 | 0.9 | 1.7 | 0.00 | 0.00 | 0.00 | 71 | 1015.1 |
| 20260507042256 | 64 | 173 | 0.9 | 1.7 | 0.00 | 0.00 | 0.00 | 71 | 1015.1 |
| 20260507041754 | 64 | 162 | 0.9 | 1.7 | 0.00 | 0.00 | 0.00 | 71 | 1015.1 |
| 20260507041250 | 64 | 182 | 0.9 | 1.7 | 0.00 | 0.00 | 0.00 | 71 | 1014.7 |
| 20260507040747 | 64 | 176 | 1.7 | 2.6 | 0.00 | 0.00 | 0.00 | 71 | 1015.1 |
| 20260507040243 | 64 | 165 | 0.0 | 0.9 | 0.00 | 0.00 | 0.00 | 71 | 1015.1 |
| 20260507035739 | 64 | 177 | 0.9 | 1.7 | 0.00 | 0.00 | 0.00 | 71 | 1015.1 |
| 20260507035235 | 64 | 170 | 1.7 | 2.6 | 0.00 | 0.00 | 0.00 | 71 | 1014.7 |
| 20260507034733 | 64 | 190 | 1.7 | 4.3 | 0.00 | 0.00 | 0.00 | 70 | 1014.7 |
| 20260507034229 | 64 | 190 | 1.7 | 2.6 | 0.00 | 0.00 | 0.00 | 70 | 1014.7 |
| 20260507033728 | 64 | 182 | 2.6 | 4.3 | 0.00 | 0.00 | 0.00 | 70 | 1014.4 |
| 20260507033225 | 65 | 170 | 1.7 | 2.6 | 0.00 | 0.00 | 0.00 | 69 | 1014.7 |
| 20260507032722 | 65 | 160 | 1.7 | 1.7 | 0.00 | 0.00 | 0.00 | 69 | 1014.4 |
| 20260507032218 | 65 | 194 | 0.0 | 2.6 | 0.00 | 0.00 | 0.00 | 68 | 1014.7 |
| 20260507031715 | 65 | 211 | 2.6 | 4.3 | 0.00 | 0.00 | 0.00 | 68 | 1014.4 |
| 20260507031212 | 65 | 154 | 2.6 | 4.3 | 0.00 | 0.00 | 0.00 | 67 | 1014.4 |
| 20260507030708 | 65 | 171 | 3.5 | 4.3 | 0.00 | 0.00 | 0.00 | 67 | 1014.4 |
| 20260507030206 | 66 | 166 | 2.6 | 4.3 | 0.00 | 0.00 | 0.00 | 66 | 1014.0 |
| 20260507025703 | 66 | 215 | 0.9 | 1.7 | 0.00 | 0.00 | 0.00 | 67 | 1014.4 |
| 20260507025200 | 66 | 205 | 1.7 | 2.6 | 0.00 | 0.00 | 0.00 | 67 | 1014.4 |
| 20260507024658 | 66 | 176 | 3.5 | 4.3 | 0.00 | 0.00 | 0.00 | 67 | 1014.0 |
| 20260507024155 | 66 | 170 | 2.6 | 2.6 | 0.00 | 0.00 | 0.00 | 66 | 1014.4 |
| 20260507023650 | 66 | 193 | 2.6 | 5.2 | 0.00 | 0.00 | 0.00 | 66 | 1014.0 |
| 20260507023148 | 66 | 172 | 2.6 | 4.3 | 0.00 | 0.00 | 0.00 | 65 | 1014.0 |
| 20260507022645 | 67 | 202 | 1.7 | 5.2 | 0.00 | 0.00 | 0.00 | 65 | 1014.0 |
| 20260507022141 | 67 | 226 | 1.7 | 4.3 | 0.00 | 0.00 | 0.00 | 64 | 1013.7 |
| 20260507021637 | 67 | 214 | 0.9 | 4.3 | 0.00 | 0.00 | 0.00 | 63 | 1013.7 |
| 20260507021132 | 68 | 228 | 2.6 | 5.2 | 0.00 | 0.00 | 0.00 | 62 | 1013.7 |
| 20260507020631 | 68 | 250 | 4.3 | 5.2 | 0.00 | 0.00 | 0.00 | 60 | 1013.7 |
| 20260507020127 | 68 | 211 | 0.9 | 4.3 | 0.00 | 0.00 | 0.00 | 58 | 1013.7 |
| 20260507015626 | 68 | 221 | 3.5 | 6.1 | 0.00 | 0.00 | 0.00 | 59 | 1013.7 |
| 20260507015122 | 69 | 215 | 4.3 | 5.2 | 0.00 | 0.00 | 0.00 | 58 | 1013.7 |
| 20260507014619 | 69 | 219 | 1.7 | 4.3 | 0.00 | 0.00 | 0.00 | 57 | 1013.7 |
| 20260507014115 | 69 | 183 | 1.7 | 5.2 | 0.00 | 0.00 | 0.00 | 56 | 1013.7 |